Regional Weather Roundup
Issued by NWS

Home | Current Version | Previous Version | Text Only | Print | Product List | Glossary On
Versions: 1 2 3 4 5 6 7 8 9 10 11 12 13 14 15 16 17 18 19 20 21 22 23 24 25 26 27 28 29 30 31 32 33 34 35 36 37 38 39 40 41 42 43 44 45 46 47 48 49 50
000
ASUS45 KREV 291310
RWRNV
NEVADA REGIONAL WEATHER ROUNDUP
NATIONAL WEATHER SERVICE RENO NV
600 AM PDT THU SEP 29 2016

NOTE: "FAIR" INDICATES FEW OR NO CLOUDS BELOW 12,000 FEET WITH NO
SIGNIFICANT WEATHER AND/OR OBSTRUCTIONS TO VISIBILITY.

NVZ001-003-004-291400-
WESTERN NEVADA

CITY           SKY/WX    TMP DP  RH WIND       PRES   REMARKS
RENO           PTCLDY    56  40  55 CALM      30.13R
CARSON CITY    FAIR      59  30  33 CALM      30.16S
MINDEN         FAIR      48  32  53 CALM      30.16R
PYRAMID LAKE     N/A     70 N/A N/A SW5         N/A
FALLON         PTCLDY    59  38  45 S9        30.10R
LOVELOCK       PTCLDY    48  27  44 N5        30.09R
HAWTHORNE        N/A     64  36  34 CALM      30.14R
$$

NVZ002-CAZ072-073-291400-
NORTHERN AND CENTRAL SIERRA

CITY           SKY/WX    TMP DP  RH WIND       PRES   REMARKS
S. LAKE TAHOE  PTCLDY    46  31  55 CALM      30.24R
TRUCKEE        PTCLDY    41  32  70 CALM      30.23S
SQUAW VLY 8000 NOT AVBL
MAMMOTH LAKES  MOCLDY    41  28  59 CALM      30.32R
BRIDGEPORT       N/A     54  23  30 CALM      30.26R
$$

NVZ030-031-036-291400-
NORTHERN NEVADA

CITY           SKY/WX    TMP DP  RH WIND       PRES   REMARKS
ELKO           CLOUDY    63  39  41 W5        30.18R
WINNEMUCCA     PTCLDY    66  35  31 S12       30.09R
WENDOVER       MOCLDY    59  48  67 NE7       30.18R
$$

NVZ035-037-291400-
CENTRAL NEVADA

CITY           SKY/WX    TMP DP  RH WIND       PRES   REMARKS
ELY            MOCLDY    52  45  77 S8        30.30S
EUREKA           N/A     54  38  54 CALM      30.25R
$$

NVZ013-014-291400-
SOUTH CENTRAL NEVADA

CITY           SKY/WX    TMP DP  RH WIND       PRES   REMARKS
TONOPAH        CLEAR     50  40  68 N8        30.26R
$$

NVZ017-020-022-291400-
SOUTHERN NEVADA

CITY           SKY/WX    TMP DP  RH WIND       PRES   REMARKS
LAS VEGAS      MOCLDY    72  54  53 SW3       30.11R
N. LAS VEGAS   MOCLDY    72  55  55 W5        30.10R
NELLIS AFB     PTCLDY    69  52  53 E5        30.09R
HENDERSON      PTCLDY    66  50  56 SE6       30.14R
MERCURY        NOT AVBL
$$



USA.gov is the U.S. government's official web portal to all federal, state and local government web resources and services.